TIANWANG 1B (TW-1B)
1 40927U 15051C   19355.41726917  .00013117  00000-0  17657-3 0  9996
2 40927  97.1151  40.5346 0008721  61.0994 356.8985 15.57935437238890
TIANWANG 1A (TW-1A)
1 40928U 15051D   19355.44620231  .00002419  00000-0  59167-4 0  9998
2 40928  97.1283  22.5524 0012284 113.2939 354.0852 15.41692093237784
LAPAN A2
1 40931U 15052B   19355.02448215  .00000693  00000-0  74414-5 0  9992
2 40931   5.9948 174.9528 0013476 259.9769  99.9251 14.76622553228691
LQSAT
1 40958U 15057A   19354.86498739 -.00000011 +00000-0 +58642-5 0  9993
2 40958 097.8786 058.8488 0018316 011.4890 348.6733 14.73100744226078
CHUBUSAT 2
1 41338U 16012B   19354.86269012 +.00000265 +00000-0 +13886-4 0  9998
2 41338 031.0043 047.9282 0013687 137.3627 222.8072 15.00221724210749
CHUBUSAT 3
1 41339U 16012C   19355.47608561  .00000258  00000-0  13239-4 0  9997
2 41339  31.0128  41.8851 0013356 150.7753 209.3642 15.00392076210833
OUFTI-1
1 41458U 16025C   19354.82701236 +.00001632 +00000-0 +85246-4 0  9998
2 41458 098.1000 091.1079 0166381 094.4659 267.5595 15.06324199200439
E-STAR-2
1 41459U 16025D   19355.48737870  .00001961  00000-0  10230-3 0  9990
2 41459  98.0999  91.3493 0167563  93.9890 268.0520 15.05931644200502
AAUSAT 4
1 41460U 16025E   19355.55296726  .00002345  00000-0  11857-3 0  9993
2 41460  98.0965  93.1627 0157063  84.5526 277.3599 15.08018488200674
NUSAT 1
1 41557U 16033B   19355.44667564  .00000992  00000-0  39447-4 0  9991
2 41557  97.4122  81.8470 0013754   8.4640 351.6828 15.27610506198441
BEESAT 4
1 41619U 16040W   19354.69086820  .00001057  00000-0  47077-4 0  9995
2 41619  97.3457  53.2700 0012907  93.1945 267.0769 15.23550671182020
PRATHAM
1 41783U 16059A   19354.73946775  .00000026  00000-0  14163-4 0  9991
2 41783  98.0443  49.9960 0034088 160.0038 200.2508 14.63027304172604
ALSAT 1N
1 41789U 16059G   19355.45826250  .00000070  00000-0  22208-4 0  9990
2 41789  98.0471  53.1053 0029095 146.0557 214.2518 14.64284678172834
NAYIF 1
1 42017U 17008BX  19354.90780169 +.00001241 +00000-0 +51081-4 0  9999
2 42017 097.3835 059.9221 0005005 225.3591 134.7240 15.25991271158160
MAX VALIER SAT
1 42778U 17036P   19354.91223084 +.00000728 +00000-0 +34536-4 0  9998
2 42778 097.3316 048.2746 0010750 296.8957 063.1181 15.22309094138411
